Flag for USA Past Weather in Furnace Creek (Death Valley), California, USA — Yesterday and Last 2 Weeks

Now
34 °F

Clear.


Feels Like: 34 °F
Forecast: 47 / 68 °F
Wind: No wind

Location: Desert Rock Airport

Current Time: Dec 10, 2016 at 1:14:57 am

Latest Report: Dec 9, 2016 at 11:55 pm


Visibility: 10 mi

Pressure: 30.16 "Hg

Humidity: 61%

Dew Point: 22 °F

Location of Furnace Creek (Death Valley)Location

Past Weather in Furnace Creek (Death Valley) — Graph

°F

Furnace Creek (Death Valley) Temperature Yesterday

Maximum temperature yesterday: 53 °F (at 1:55 pm)
Minimum temperature yesterday: 34 °F (at 11:55 pm)
Average temperature yesterday: 44 °F

High & Low Weather Summary for the Past Weeks

 TemperatureHumidityPressure
High64 °F (Dec 5, 1:55 pm)92% (Nov 28, 5:55 am)30.26 "Hg (Nov 28, 5:55 am)
Low28 °F (Nov 30, 6:55 am)11% (Dec 3, 1:55 pm)29.59 "Hg (Nov 26, 8:55 pm)
Average43 °F37%30.01 "Hg
* Reported Nov 24 11:55 pm — Dec 9 11:55 pm, Furnace Creek (Death Valley), Weather by CustomWeather, © 2016

Note: Actual official high and low records may vary slightly from our data, if they occured in-between our weather recording intervals... More about our weather records

Advertising

Furnace Creek (Death Valley) Weather History for the Previous 24 Hours

Scroll right to see more
 ConditionsComfort  
Time TempWeatherWind HumidityBarometerVisibility
11:55 pm
Fri, Dec 9
34 °FClear.No wind61%30.16 "Hg10 mi
10:55 pm37 °FClear.6 mph50%30.17 "Hg10 mi
9:55 pm37 °FClear.No wind50%30.18 "Hg10 mi
8:55 pm38 °FClear.3 mph48%30.18 "Hg10 mi
7:55 pm42 °FClear.7 mph41%30.17 "Hg10 mi
6:55 pm43 °FClear.7 mph38%30.16 "Hg10 mi
5:55 pm45 °FClear.8 mph28%30.16 "Hg10 mi
4:55 pm46 °FPassing clouds.8 mph26%30.18 "Hg10 mi
3:55 pm50 °FScattered clouds.8 mph22%30.17 "Hg10 mi
2:55 pm51 °FSunny.9 mph23%30.17 "Hg10 mi
1:55 pm53 °FOvercast.7 mph21%30.17 "Hg10 mi
12:55 pm51 °FOvercast.13 mph19%30.19 "Hg10 mi
11:55 am50 °FOvercast.12 mph20%30.21 "Hg10 mi
10:55 am48 °FPassing clouds.12 mph21%30.24 "Hg10 mi
9:55 am46 °FOvercast.8 mph23%30.26 "Hg10 mi
8:55 am46 °FOvercast.7 mph23%30.24 "Hg10 mi
7:55 am43 °FOvercast.10 mph24%30.24 "Hg10 mi
6:55 am42 °FOvercast.13 mph25%30.24 "Hg10 mi
5:55 am42 °FOvercast.6 mph28%30.23 "Hg10 mi
4:55 am42 °FOvercast.No wind28%30.23 "Hg10 mi
3:55 am42 °FOvercast.3 mph27%30.23 "Hg10 mi
2:55 am41 °FOvercast.No wind27%30.23 "Hg10 mi
1:55 am40 °FOvercast.8 mph29%30.22 "Hg10 mi
Weather by CustomWeather, © 2016

See weather overviewHow to use our weather pages